"Pseudo-MPEC" for C371T42

Created 2020 Sep 16 22:07:15 UT using Find_Orb

Click here for an explanation of pseudo-MPECs

 
 Astrometry: 
     C371T42  C2020 09 06'ANJ6qH$sAstrometry1=2credacted;h\9jFHr/tRKEcrclickqF52
     C371T42  C2020 09 06:Sr5(v%SD*'/!mrDhere)f4Ol6U0TUry'2,yhO'BNeI]forAp0eyF52
     C371T42  C2020 09 06vSNBiPxy_$/WW6idiE,'NlFQ*gGn,FD_ufNexplanation%(dC7AF52
     C371T42  C2020 09 16.26779 23 25 20.79 +35 51 33.0    ~9G7M 20.6 GVNEOCPG96
     C371T42  C2020 09 16.27367 23 25 20.55 +35 51 14.7    ~9G7M 20.7 GVNEOCPG96
     C371T42  C2020 09 16.27955 23 25 20.31 +35 50 56.7    ~9G7M 20.5 GVNEOCPG96
     C371T42  C2020 09 16.28543 23 25 20.08 +35 50 38.3    ~9G7M 20.6 GVNEOCPG96
     C371T42  C2020 09 16.37711 23 25 16.43 +35 45 53.4    ~9G9q 20.6 GVNEOCPI52
     C371T42  C2020 09 16.37879 23 25 16.34 +35 45 48.3    ~9G9q 20.2 GVNEOCPI52
     C371T42  C2020 09 16.38047 23 25 16.29 +35 45 42.8    ~9G9q 20.2 GVNEOCPI52
     C371T42  C2020 09 16.38215 23 25 16.22 +35 45 37.5    ~9G9q 20.3 GVNEOCPI52

Station data:
(F52) Pan-STARRS 2, Haleakala  (N20.707384 W156.255910)  US/Hawaii. 1.8-m
   Ritchey-Chrétien + CCD.
(G96) Mt. Lemmon Survey  (N32.442754 W110.788720)  US/Arizona.  Observers T.
   A. Pruyne, B. M. Africano, E. J. Christensen, G. A. Farneth, D. C. Fuls,
   A. R. Gibbs, A. D. Grauer, H. Gröller, J. A. Johnson, R. A. Kowalski, S.
   M. Larson, G. J. Leonard, D. Rankin, R. L. Seaman, F. C. Shelly. 1.5-m
   reflector + 10K CCD.
(I52) Steward Observatory, Mt. Lemmon Station  (N32.442547 W110.788920)
   US/Arizona.  Observers T. A. Pruyne, B. M. Africano, E. J. Christensen, G.
   A. Farneth, D. C. Fuls, A. R. Gibbs, A. D. Grauer, H. Gröller, J. A.
   Johnson, R. A. Kowalski, S. M. Larson, G. J. Leonard, D. Rankin, R. L.
   Seaman, F. C. Shelly. 1.0-m reflector + CCD.

Orbital elements:  C371T42
   Perihelion 2020 Aug 17.547035 +/- 17.3 TT = 13:07:43 (JD 2459079.047035)
Epoch 2020 Sep 16.0 TT = JDT 2459108.5   Earth MOID: 0.5692   AutoNEOCP
M  11.77168471 +/- 8                (J2000 ecliptic)
n   0.39967741 +/- 0.0347           Peri.  142.07611 +/- 10
a   1.82528063 +/- 0.105            Node   195.09618 +/- 0.6
e   0.1614960 +/- 0.0266            Incl.   40.45911 +/- 2.3
P   2.47/900.71d           H 19.8   G  0.15   U 10.5  
q 1.53050498 +/- 0.0385    Q 2.12005628 +/- 0.165
From 11 observations 2020 Sept. 6-16; mean residual 0".11
Residuals in arcseconds: 
200906 F52  .16+  .16+    200916 G96  .03-  .05-    200916 I52  .14-  .16+    
200906 F52  .04-  .04+    200916 G96  .08-  .11+    200916 I52  .06+  .09-    
200906 F52  .12-  .20-    200916 G96  .00   .11-    200916 I52  .01+  .14-    
200916 G96  .02+  .10+    200916 I52  .15+  .01+    

Ephemerides (geocentric):
Date (UTC) HH   RA              Dec         delta   r     elong  mag " sig PA
---- -- -- --  -------------   -----------  ------ ------ -----  --- ---- ---
2020 09 16 22  23 24 58.660   +35 17 45.68  .61667 1.5398 142.3 20.8 2.78 172
2020 09 16 23  23 24 57.258   +35 15 34.25  .61648 1.5398 142.3 20.8 2.77 171
2020 09 17 00  23 24 55.858   +35 13 22.66  .61629 1.5399 142.4 20.8 2.75 170
2020 09 17 01  23 24 54.458   +35 11 10.91  .61610 1.5399 142.4 20.8 2.74 169
2020 09 17 02  23 24 53.059   +35 08 59.00  .61591 1.5399 142.5 20.8 2.73 168
2020 09 17 03  23 24 51.662   +35 06 46.94  .61572 1.5400 142.5 20.8 2.71 167
2020 09 17 04  23 24 50.265   +35 04 34.72  .61554 1.5400 142.6 20.8 2.70 166
2020 09 17 05  23 24 48.869   +35 02 22.35  .61535 1.5400 142.6 20.8 2.68 165
2020 09 17 06  23 24 47.475   +35 00 09.81  .61516 1.5400 142.7 20.8 2.67 164
2020 09 17 07  23 24 46.082   +34 57 57.13  .61498 1.5401 142.7 20.8 2.65 163
2020 09 17 08  23 24 44.689   +34 55 44.28  .61479 1.5401 142.8 20.8 2.64 162
2020 09 17 09  23 24 43.298   +34 53 31.28  .61461 1.5401 142.8 20.8 2.63 160
2020 09 17 10  23 24 41.908   +34 51 18.12  .61442 1.5401 142.9 20.8 2.61 159
2020 09 17 11  23 24 40.519   +34 49 04.81  .61424 1.5402 142.9 20.8 2.60 158
2020 09 17 12  23 24 39.131   +34 46 51.35  .61406 1.5402 142.9 20.8 2.59 157
2020 09 17 13  23 24 37.744   +34 44 37.72  .61387 1.5402 143.0 20.8 2.58 155
2020 09 17 14  23 24 36.359   +34 42 23.95  .61369 1.5402 143.0 20.8 2.57 154
2020 09 17 15  23 24 34.974   +34 40 10.01  .61351 1.5403 143.1 20.8 2.56 152
2020 09 17 16  23 24 33.591   +34 37 55.93  .61333 1.5403 143.1 20.8 2.55 151
2020 09 17 17  23 24 32.209   +34 35 41.69  .61315 1.5403 143.2 20.8 2.54 150
2020 09 17 18  23 24 30.828   +34 33 27.29  .61296 1.5403 143.2 20.8 2.54 148
2020 09 17 19  23 24 29.448   +34 31 12.74  .61278 1.5404 143.3 20.8 2.53 146
2020 09 17 20  23 24 28.070   +34 28 58.03  .61260 1.5404 143.3 20.8 2.53 145
2020 09 17 21  23 24 26.692   +34 26 43.18  .61243 1.5404 143.4 20.8 2.53 143
2020 09 17 22  23 24 25.316   +34 24 28.16  .61225 1.5404 143.4 20.8 2.53 142
2020 09 17 23  23 24 23.942   +34 22 13.00  .61207 1.5405 143.5 20.8 2.53 140
2020 09 18 00  23 24 22.568   +34 19 57.68  .61189 1.5405 143.5 20.8 2.53 138
2020 09 18 01  23 24 21.196   +34 17 42.21  .61171 1.5405 143.6 20.8 2.54 136
2020 09 18 02  23 24 19.824   +34 15 26.58  .61154 1.5405 143.6 20.8 2.54 135
2020 09 18 03  23 24 18.455   +34 13 10.80  .61136 1.5406 143.7 20.8 2.55 133
2020 09 18 04  23 24 17.086   +34 10 54.87  .61118 1.5406 143.7 20.8 2.56 131
2020 09 18 05  23 24 15.719   +34 08 38.79  .61101 1.5406 143.8 20.8 2.58 129
2020 09 18 06  23 24 14.353   +34 06 22.55  .61083 1.5407 143.8 20.8 2.59 128
2020 09 18 07  23 24 12.988   +34 04 06.17  .61066 1.5407 143.9 20.8 2.61 126
2020 09 18 08  23 24 11.625   +34 01 49.63  .61048 1.5407 143.9 20.8 2.63 124
2020 09 18 09  23 24 10.262   +33 59 32.94  .61031 1.5407 144.0 20.8 2.65 122
2020 09 18 10  23 24 08.902   +33 57 16.09  .61014 1.5408 144.0 20.8 2.68 120
2020 09 18 11  23 24 07.542   +33 54 59.10  .60997 1.5408 144.1 20.8 2.71 118
2020 09 18 12  23 24 06.184   +33 52 41.95  .60979 1.5408 144.1 20.8 2.74 117
2020 09 18 13  23 24 04.828   +33 50 24.66  .60962 1.5408 144.2 20.8 2.77 115
2020 09 18 14  23 24 03.472   +33 48 07.21  .60945 1.5409 144.2 20.7 2.81 113
2020 09 18 15  23 24 02.118   +33 45 49.61  .60928 1.5409 144.3 20.7 2.85 111
2020 09 18 16  23 24 00.766   +33 43 31.87  .60911 1.5409 144.3 20.7 2.89 109
2020 09 18 17  23 23 59.415   +33 41 13.97  .60894 1.5409 144.4 20.7 2.94 108
2020 09 18 18  23 23 58.065   +33 38 55.92  .60877 1.5410 144.4 20.7 2.99 106
2020 09 18 19  23 23 56.717   +33 36 37.72  .60860 1.5410 144.5 20.7 3.04 104
2020 09 18 20  23 23 55.370   +33 34 19.38  .60843 1.5410 144.5 20.7 3.10 103
2020 09 18 21  23 23 54.024   +33 32 00.88  .60827 1.5411 144.5 20.7 3.15 101